• în Republica Moldova
  • Lista ţărilor
  • Pe 7 zile
  • Temperatura apei
  • Hartă satelitară
  • Meteo pe hartă
  • Widget-uri
  • user-avatar
    Intrare

    Meteo pe oră la Igls

    Astăzi, 21 Noiembrie, Marţi

    Timp Temperatura Precipitaţii Vânt Presiune Umiditate
    00:00 +2°C° 0,1 mm 2 m/s 684 mmHg 84%
    01:00 +3°C° 0 mm 2 m/s 684 mmHg 84%
    02:00 +3°C° 0,5 mm 2 m/s 684 mmHg 86%
    03:00 +4°C° 0,5 mm 2 m/s 684 mmHg 88%
    04:00 +4°C° 0,5 mm 2 m/s 684 mmHg 91%
    05:00 +4°C° 0,5 mm 2 m/s 684 mmHg 91%
    06:00 +4°C° 0,5 mm 2 m/s 684 mmHg 92%
    07:00 +3°C° 0 mm 3 m/s 684 mmHg 91%
    08:00 +4°C° 0,2 mm 3 m/s 684 mmHg 91%
    09:00 +5°C° 0,2 mm 2 m/s 684 mmHg 91%
    10:00 +6°C° 0,2 mm 2 m/s 684 mmHg 91%
    11:00 +7°C° 0,2 mm 2 m/s 684 mmHg 92%
    12:00 +7°C° 0,2 mm 2 m/s 684 mmHg 92%
    13:00 +8°C° 0,2 mm 2 m/s 684 mmHg 93%
    14:00 +7°C° 0,3 mm 2 m/s 684 mmHg 93%
    15:00 +7°C° 0,3 mm 2 m/s 684 mmHg 92%
    16:00 +7°C° 0,3 mm 2 m/s 684 mmHg 92%
    17:00 +6°C° 0 mm 2 m/s 684 mmHg 91%
    18:00 +5°C° 0 mm 2 m/s 684 mmHg 90%
    19:00 +4°C° 0 mm 2 m/s 684 mmHg 89%
    20:00 +4°C° 0 mm 2 m/s 684 mmHg 88%
    21:00 +4°C° 0 mm 2 m/s 684 mmHg 86%
    22:00 +3°C° 0 mm 2 m/s 684 mmHg 85%
    23:00 +3°C° 0 mm 2 m/s 684 mmHg 84%

    Mâine, 22 Noiembrie, Miercuri

    Timp Temperatura Precipitaţii Vânt Presiune Umiditate
    00:00 +3°C° 0 mm 2 m/s 684 mmHg 82%
    01:00 +3°C° 0 mm 2 m/s 684 mmHg 81%
    02:00 +3°C° 0 mm 2 m/s 684 mmHg 80%
    03:00 +3°C° 0 mm 2 m/s 684 mmHg 79%
    04:00 +3°C° 0 mm 2 m/s 684 mmHg 77%
    05:00 +3°C° 0 mm 2 m/s 683 mmHg 76%
    06:00 +3°C° 0 mm 2 m/s 683 mmHg 75%
    07:00 +3°C° 0 mm 2 m/s 683 mmHg 74%
    08:00 +4°C° 0 mm 2 m/s 684 mmHg 75%
    09:00 +6°C° 0 mm 2 m/s 684 mmHg 76%
    10:00 +7°C° 0 mm 2 m/s 684 mmHg 77%
    11:00 +8°C° 0 mm 2 m/s 684 mmHg 80%
    12:00 +10°C° 0 mm 1 m/s 684 mmHg 84%
    13:00 +11°C° 0 mm 1 m/s 684 mmHg 87%
    14:00 +10°C° 0 mm 1 m/s 683 mmHg 85%
    15:00 +8°C° 0 mm 2 m/s 683 mmHg 82%
    16:00 +7°C° 0 mm 2 m/s 683 mmHg 80%
    17:00 +6°C° 0 mm 2 m/s 683 mmHg 80%
    18:00 +5°C° 0 mm 2 m/s 683 mmHg 80%
    19:00 +4°C° 0 mm 2 m/s 683 mmHg 79%
    20:00 +3°C° 0 mm 2 m/s 683 mmHg 80%
    21:00 +2°C° 0 mm 3 m/s 683 mmHg 80%
    22:00 +2°C° 0 mm 3 m/s 683 mmHg 80%
    23:00 +2°C° 0 mm 3 m/s 683 mmHg 81%

    Poimâine, 23 Noiembrie, Joi

    Timp Temperatura Precipitaţii Vânt Presiune Umiditate
    00:00 +2°C° 0 mm 3 m/s 683 mmHg 81%
    01:00 +2°C° 0 mm 3 m/s 683 mmHg 82%
    02:00 +2°C° 0 mm 3 m/s 683 mmHg 82%
    03:00 +2°C° 0 mm 3 m/s 683 mmHg 81%
    04:00 +2°C° 0 mm 3 m/s 683 mmHg 81%
    05:00 +2°C° 0 mm 3 m/s 683 mmHg 81%
    06:00 +2°C° 0 mm 2 m/s 683 mmHg 80%
    07:00 +2°C° 0 mm 2 m/s 683 mmHg 80%
    08:00 +4°C° 0 mm 2 m/s 683 mmHg 78%
    09:00 +5°C° 0 mm 2 m/s 684 mmHg 77%
    10:00 +7°C° 0 mm 2 m/s 684 mmHg 76%
    11:00 +9°C° 0 mm 1 m/s 684 mmHg 79%
    12:00 +10°C° 0 mm 1 m/s 684 mmHg 81%
    13:00 +11°C° 0 mm 1 m/s 684 mmHg 84%
    14:00 +10°C° 0 mm 1 m/s 684 mmHg 80%
    15:00 +9°C° 0 mm 1 m/s 684 mmHg 77%
    16:00 +7°C° 0 mm 1 m/s 684 mmHg 73%
    17:00 +7°C° 0 mm 1 m/s 685 mmHg 72%
    18:00 +6°C° 0 mm 1 m/s 685 mmHg 71%
    19:00 +5°C° 0 mm 1 m/s 686 mmHg 71%
    20:00 +5°C° 0 mm 1 m/s 686 mmHg 70%
    21:00 +3°C° 0 mm 2 m/s 686 mmHg 70%
    22:00 +3°C° 0 mm 2 m/s 686 mmHg 70%
    23:00 +3°C° 0 mm 2 m/s 686 mmHg 70%

    24 Noiembrie, Vineri

    Timp Temperatura Precipitaţii Vânt Presiune Umiditate
    00:00 +3°C° 0 mm 2 m/s 687 mmHg 70%
    01:00 +3°C° 0 mm 2 m/s 687 mmHg 69%
    02:00 +3°C° 0 mm 2 m/s 686 mmHg 69%
    03:00 +3°C° 0 mm 2 m/s 686 mmHg 69%
    04:00 +3°C° 0 mm 2 m/s 686 mmHg 69%
    05:00 +3°C° 0 mm 2 m/s 686 mmHg 69%
    06:00 +3°C° 0 mm 2 m/s 686 mmHg 69%
    07:00 +3°C° 0 mm 2 m/s 686 mmHg 69%
    08:00 +4°C° 0 mm 2 m/s 686 mmHg 70%
    09:00 +6°C° 0 mm 2 m/s 687 mmHg 70%
    10:00 +7°C° 0 mm 2 m/s 687 mmHg 71%
    11:00 +8°C° 0 mm 2 m/s 687 mmHg 72%
    12:00 +9°C° 0 mm 2 m/s 686 mmHg 74%
    13:00 +10°C° 0 mm 2 m/s 686 mmHg 75%
    14:00 +9°C° 0 mm 2 m/s 686 mmHg 76%
    15:00 +8°C° 0 mm 2 m/s 686 mmHg 77%
    16:00 +6°C° 0 mm 2 m/s 685 mmHg 78%
    17:00 +6°C° 0 mm 2 m/s 686 mmHg 78%
    18:00 +5°C° 0 mm 2 m/s 686 mmHg 77%
    19:00 +5°C° 0 mm 2 m/s 686 mmHg 76%
    20:00 +5°C° 0 mm 2 m/s 686 mmHg 76%
    21:00 +5°C° 0 mm 2 m/s 686 mmHg 76%
    22:00 +5°C° 0 mm 2 m/s 686 mmHg 76%
    23:00 +5°C° 0 mm 2 m/s 686 mmHg 77%

    25 Noiembrie, Sâmbătă

    Timp Temperatura Precipitaţii Vânt Presiune Umiditate
    00:00 +5°C° 0 mm 2 m/s 686 mmHg 77%
    01:00 +5°C° 0 mm 2 m/s 686 mmHg 78%
    02:00 +5°C° 0 mm 2 m/s 685 mmHg 79%
    03:00 +5°C° 0 mm 2 m/s 685 mmHg 79%
    04:00 +5°C° 0 mm 2 m/s 685 mmHg 80%
    05:00 +5°C° 0 mm 2 m/s 685 mmHg 81%
    06:00 +5°C° 0 mm 2 m/s 685 mmHg 82%
    07:00 +3°C° 0 mm 3 m/s 685 mmHg 82%
    08:00 +4°C° 0 mm 3 m/s 685 mmHg 82%
    09:00 +7°C° 0 mm 3 m/s 685 mmHg 81%
    10:00 +8°C° 0 mm 3 m/s 685 mmHg 81%
    11:00 +9°C° 0 mm 3 m/s 684 mmHg 82%
    12:00 +9°C° 0 mm 3 m/s 684 mmHg 83%
    13:00 +10°C° 0 mm 3 m/s 684 mmHg 84%
    14:00 +9°C° 0 mm 2 m/s 684 mmHg 86%
    15:00 +8°C° 0 mm 2 m/s 684 mmHg 88%
    16:00 +7°C° 0 mm 2 m/s 684 mmHg 90%
    17:00 +7°C° 0,1 mm 2 m/s 685 mmHg 91%
    18:00 +7°C° 0,1 mm 1 m/s 686 mmHg 92%
    19:00 +7°C° 0,1 mm 1 m/s 686 mmHg 93%
    20:00 +6°C° 0,1 mm 1 m/s 686 mmHg 93%
    21:00 +6°C° 0,1 mm 1 m/s 687 mmHg 94%
    22:00 +6°C° 0,1 mm 1 m/s 687 mmHg 94%
    23:00 +6°C° 0,1 mm 1 m/s 687 mmHg 94%

    26 Noiembrie, Duminică

    Timp Temperatura Precipitaţii Vânt Presiune Umiditate
    00:00 +6°C° 0,1 mm 1 m/s 687 mmHg 95%
    01:00 +6°C° 0,1 mm 1 m/s 687 mmHg 95%
    02:00 +5°C° 0,1 mm 1 m/s 687 mmHg 95%
    03:00 +5°C° 0,1 mm 1 m/s 686 mmHg 95%
    04:00 +5°C° 0,1 mm 1 m/s 686 mmHg 96%
    05:00 +5°C° 0,3 mm 1 m/s 686 mmHg 96%
    06:00 +5°C° 0,3 mm 1 m/s 686 mmHg 96%
    07:00 +5°C° 0,3 mm 1 m/s 686 mmHg 96%
    08:00 +5°C° 1,1 mm 1 m/s 686 mmHg 95%
    09:00 +5°C° 1,1 mm 1 m/s 686 mmHg 95%
    10:00 +5°C° 1,1 mm 1 m/s 686 mmHg 95%
    11:00 +4°C° 1,5 mm 2 m/s 686 mmHg 94%
    12:00 +3°C° 1,5 mm 2 m/s 686 mmHg 94%
    13:00 +3°C° 1,5 mm 2 m/s 686 mmHg 94%
    14:00 +3°C° 0,8 mm 2 m/s 686 mmHg 94%
    15:00 +2°C° 0,8 mm 2 m/s 686 mmHg 94%
    16:00 +2°C° 0,8 mm 2 m/s 687 mmHg 94%
    17:00 +1°C° 0,3 mm 2 m/s 687 mmHg 93%
    18:00 -1°C° 0,3 mm 2 m/s 687 mmHg 93%
    19:00 -2°C° 0,3 mm 3 m/s 688 mmHg 93%
    20:00 -3°C° 0 mm 2 m/s 688 mmHg 93%
    21:00 -4°C° 0 mm 2 m/s 688 mmHg 93%
    22:00 -5°C° 0 mm 2 m/s 689 mmHg 92%
    23:00 -6°C° 0 mm 2 m/s 689 mmHg 90%
    Arată mai mult